Time,TemperatureF,DewpointF,PressureIn,WindDirection,WindDirectionDegrees,WindSpeedMPH,WindSpeedGustMPH,Humidity,HourlyPrecipIn,Conditions,Clouds,dailyrainin,SolarRadiationWatts/m^2,SoftwareType,DateUTC
2013-03-12 00:03:00,43.1,36.4,30.27,NNE,32,0.0,0.0,77,0.00,,,0.00,0,WeatherHawk,2013-03-12 07:03:00,
2013-03-12 00:08:00,43.8,37.0,30.27,SSE,147,3.0,0.0,77,0.00,,,0.00,0,WeatherHawk,2013-03-12 07:08:00,
2013-03-12 00:13:00,42.9,35.9,30.26,SSE,147,2.0,0.0,76,0.00,,,0.00,1,WeatherHawk,2013-03-12 07:13:00,
2013-03-12 00:18:00,43.9,35.8,30.26,SSW,196,1.0,0.0,73,0.00,,,0.00,1,WeatherHawk,2013-03-12 07:18:00,
2013-03-12 00:23:00,43.4,34.7,30.26,SSE,161,1.0,0.0,71,0.00,,,0.00,1,WeatherHawk,2013-03-12 07:23:00,
2013-03-12 00:29:00,43.8,35.4,30.26,SSE,154,0.0,0.0,72,0.00,,,0.00,1,WeatherHawk,2013-03-12 07:29:00,
2013-03-12 00:34:00,44.1,36.0,30.26,NNW,338,0.0,0.0,73,0.00,,,0.00,1,WeatherHawk,2013-03-12 07:34:00,
2013-03-12 00:39:00,41.7,35.0,30.26,NNW,340,0.0,0.0,77,0.00,,,0.00,0,WeatherHawk,2013-03-12 07:39:00,
2013-03-12 00:44:00,41.9,36.2,30.26,NNW,340,0.0,0.0,80,0.00,,,0.00,0,WeatherHawk,2013-03-12 07:44:00,
2013-03-12 00:50:00,42.2,36.2,30.27,SE,134,0.0,-999.0,79,0.00,,,0.00,0,WeatherHawk,2013-03-12 07:50:00,
2013-03-12 00:55:00,42.4,36.0,30.27,SE,134,2.0,-999.0,78,0.00,,,0.00,0,WeatherHawk,2013-03-12 07:55:00,
2013-03-12 01:00:00,43.4,35.7,30.26,SSE,147,3.0,0.0,74,0.00,,,0.00,0,WeatherHawk,2013-03-12 08:00:00,
2013-03-12 01:06:00,44.1,36.0,30.26,WSW,245,0.0,0.0,73,0.00,,,0.00,0,WeatherHawk,2013-03-12 08:06:00,
2013-03-12 01:12:00,43.3,34.9,30.26,SSE,147,1.0,0.0,72,0.00,,,0.00,0,WeatherHawk,2013-03-12 08:12:00,
2013-03-12 01:17:00,44.6,35.5,30.25,South,173,4.0,0.0,70,0.00,,,0.00,0,WeatherHawk,2013-03-12 08:17:00,
2013-03-12 01:22:00,44.2,34.7,30.25,South,172,0.0,0.0,69,0.00,,,0.00,0,WeatherHawk,2013-03-12 08:22:00,
2013-03-12 01:27:00,44.4,34.1,30.25,SE,134,5.0,0.0,67,0.00,,,0.00,0,WeatherHawk,2013-03-12 08:27:00,
2013-03-12 01:32:00,43.6,33.0,30.24,SE,137,2.0,0.0,66,0.00,,,0.00,1,WeatherHawk,2013-03-12 08:32:00,
2013-03-12 01:37:00,44.3,34.1,30.24,SSE,163,4.0,0.0,67,0.00,,,0.00,0,WeatherHawk,2013-03-12 08:37:00,
2013-03-12 01:42:00,44.6,33.1,30.24,SSE,157,4.0,0.0,64,0.00,,,0.00,0,WeatherHawk,2013-03-12 08:42:00,
2013-03-12 01:47:00,42.5,32.3,30.24,South,173,0.0,0.0,67,0.00,,,0.00,0,WeatherHawk,2013-03-12 08:47:00,
2013-03-12 01:52:00,42.7,34.3,30.23,South,173,0.0,0.0,72,0.00,,,0.00,1,WeatherHawk,2013-03-12 08:52:00,
2013-03-12 01:57:00,41.9,34.3,30.23,South,173,0.0,0.0,74,0.00,,,0.00,0,WeatherHawk,2013-03-12 08:57:00,
2013-03-12 02:02:00,41.5,34.8,30.23,South,173,0.0,0.0,77,0.00,,,0.00,0,WeatherHawk,2013-03-12 09:02:00,
2013-03-12 02:07:00,43.1,36.4,30.24,South,180,4.0,0.0,77,0.00,,,0.00,1,WeatherHawk,2013-03-12 09:07:00,
2013-03-12 02:12:00,41.8,34.5,30.24,SW,220,0.0,0.0,75,0.00,,,0.00,0,WeatherHawk,2013-03-12 09:12:00,
2013-03-12 02:17:00,41.7,35.4,30.24,SW,220,0.0,0.0,78,0.00,,,0.00,0,WeatherHawk,2013-03-12 09:17:00,
2013-03-12 02:22:00,41.4,35.4,30.24,SSW,194,0.0,0.0,79,0.00,,,0.00,0,WeatherHawk,2013-03-12 09:22:00,
2013-03-12 02:27:00,40.7,35.4,30.24,SSW,194,0.0,0.0,81,0.00,,,0.00,0,WeatherHawk,2013-03-12 09:27:00,
2013-03-12 02:32:00,40.5,35.8,30.24,SSW,194,0.0,0.0,83,0.00,,,0.00,0,WeatherHawk,2013-03-12 09:32:00,
2013-03-12 02:37:00,40.6,36.2,30.24,SSW,194,0.0,0.0,84,0.00,,,0.00,0,WeatherHawk,2013-03-12 09:37:00,
2013-03-12 02:42:00,41.1,37.0,30.24,SE,136,0.0,0.0,85,0.00,,,0.00,0,WeatherHawk,2013-03-12 09:42:00,
2013-03-12 02:47:00,40.5,36.1,30.23,SE,124,0.0,0.0,84,0.00,,,0.00,1,WeatherHawk,2013-03-12 09:47:00,
2013-03-12 02:53:00,40.1,36.2,30.23,SE,124,0.0,0.0,86,0.00,,,0.00,0,WeatherHawk,2013-03-12 09:53:00,
2013-03-12 02:58:00,40.4,37.1,30.23,SE,124,0.0,0.0,88,0.00,,,0.00,1,WeatherHawk,2013-03-12 09:58:00,
2013-03-12 03:03:00,39.8,36.3,30.23,SE,124,0.0,0.0,87,0.00,,,0.00,0,WeatherHawk,2013-03-12 10:03:00,
2013-03-12 03:08:00,40.0,37.6,30.23,SE,124,0.0,0.0,91,0.00,,,0.00,0,WeatherHawk,2013-03-12 10:08:00,
2013-03-12 03:14:00,40.6,38.2,30.24,East,98,0.0,0.0,91,0.00,,,0.00,1,WeatherHawk,2013-03-12 10:14:00,
2013-03-12 03:20:00,40.1,37.7,30.23,NNE,17,0.0,0.0,91,0.00,,,0.00,0,WeatherHawk,2013-03-12 10:20:00,
2013-03-12 03:25:00,40.3,37.9,30.23,NNE,17,0.0,-999.0,91,0.00,,,0.00,0,WeatherHawk,2013-03-12 10:25:00,
2013-03-12 03:30:00,41.9,37.5,30.23,SE,145,2.0,0.0,84,0.00,,,0.00,0,WeatherHawk,2013-03-12 10:30:00,
2013-03-12 03:35:00,42.9,35.6,30.23,SE,135,0.0,-999.0,75,0.00,,,0.00,0,WeatherHawk,2013-03-12 10:35:00,
2013-03-12 03:40:00,39.3,34.3,30.23,North,1,0.0,0.0,82,0.00,,,0.00,0,WeatherHawk,2013-03-12 10:40:00,
2013-03-12 03:45:00,41.7,37.9,30.22,SSE,151,2.0,0.0,86,0.00,,,0.00,0,WeatherHawk,2013-03-12 10:45:00,
2013-03-12 03:50:00,42.4,33.0,30.22,SSE,149,4.0,0.0,69,0.00,,,0.00,0,WeatherHawk,2013-03-12 10:50:00,
2013-03-12 03:55:00,42.3,32.5,30.21,SSE,167,5.0,-999.0,68,0.00,,,0.00,0,WeatherHawk,2013-03-12 10:55:00,
2013-03-12 04:00:00,41.4,31.7,30.22,SE,146,4.0,-999.0,68,0.00,,,0.00,0,WeatherHawk,2013-03-12 11:00:00,
2013-03-12 04:05:00,41.4,31.6,30.22,SSE,161,3.0,0.0,68,0.00,,,0.00,0,WeatherHawk,2013-03-12 11:05:00,
2013-03-12 04:10:00,41.8,31.7,30.21,SSE,168,7.0,0.0,67,0.00,,,0.00,1,WeatherHawk,2013-03-12 11:10:00,
2013-03-12 04:15:00,40.9,30.5,30.22,SSE,154,4.0,0.0,66,0.00,,,0.00,0,WeatherHawk,2013-03-12 11:15:00,
2013-03-12 04:20:00,41.2,31.5,30.21,SSE,156,8.0,0.0,68,0.00,,,0.00,0,WeatherHawk,2013-03-12 11:20:00,
2013-03-12 04:25:00,41.1,29.9,30.21,SSE,162,9.0,0.0,64,0.00,,,0.00,0,WeatherHawk,2013-03-12 11:25:00,
2013-03-12 04:30:00,42.0,30.7,30.21,SSE,148,9.0,0.0,64,0.00,,,0.00,0,WeatherHawk,2013-03-12 11:30:00,
2013-03-12 04:35:00,41.2,29.9,30.22,SSW,202,2.0,-999.0,64,0.00,,,0.00,0,WeatherHawk,2013-03-12 11:35:00,
2013-03-12 04:40:00,38.6,33.0,30.22,SSW,199,1.0,0.0,80,0.00,,,0.00,0,WeatherHawk,2013-03-12 11:40:00,
2013-03-12 04:45:00,41.5,34.5,30.22,SSE,163,5.0,0.0,76,0.00,,,0.00,0,WeatherHawk,2013-03-12 11:45:00,
2013-03-12 04:50:00,42.2,32.0,30.21,South,187,8.0,0.0,67,0.00,,,0.00,0,WeatherHawk,2013-03-12 11:50:00,
2013-03-12 04:55:00,41.0,30.2,30.22,SSW,211,5.0,0.0,65,0.00,,,0.00,0,WeatherHawk,2013-03-12 11:55:00,
2013-03-12 05:00:00,41.9,30.7,30.21,SSE,152,11.0,-999.0,64,0.00,,,0.00,0,WeatherHawk,2013-03-12 12:00:00,
2013-03-12 05:05:00,40.7,29.4,30.21,South,170,7.0,0.0,64,0.00,,,0.00,0,WeatherHawk,2013-03-12 12:05:00,
2013-03-12 05:10:00,41.0,29.8,30.21,South,183,7.0,0.0,64,0.00,,,0.00,0,WeatherHawk,2013-03-12 12:10:00,
2013-03-12 05:15:00,42.0,30.3,30.21,South,187,11.0,0.0,63,0.00,,,0.00,0,WeatherHawk,2013-03-12 12:15:00,
2013-03-12 05:20:00,42.5,29.2,30.21,South,179,6.0,0.0,59,0.00,,,0.00,0,WeatherHawk,2013-03-12 12:20:00,
2013-03-12 05:25:00,41.9,29.5,30.21,SSW,198,6.0,0.0,61,0.00,,,0.00,1,WeatherHawk,2013-03-12 12:25:00,
2013-03-12 05:30:00,42.6,30.1,30.20,SSE,165,9.0,0.0,61,0.00,,,0.00,0,WeatherHawk,2013-03-12 12:30:00,
2013-03-12 05:35:00,42.8,29.5,30.20,SW,227,8.0,-999.0,59,0.00,,,0.00,0,WeatherHawk,2013-03-12 12:35:00,
2013-03-12 05:40:00,43.3,29.9,30.20,South,178,5.0,0.0,59,0.00,,,0.00,0,WeatherHawk,2013-03-12 12:40:00,
2013-03-12 05:45:00,42.7,29.0,30.19,SSW,200,6.0,0.0,58,0.00,,,0.00,0,WeatherHawk,2013-03-12 12:45:00,
2013-03-12 05:50:00,42.3,29.0,30.19,SSE,157,10.0,0.0,59,0.00,,,0.00,1,WeatherHawk,2013-03-12 12:50:00,
2013-03-12 05:55:00,42.0,29.5,30.19,SSE,159,9.0,-999.0,61,0.00,,,0.00,0,WeatherHawk,2013-03-12 12:55:00,
2013-03-12 06:00:00,41.8,29.8,30.20,SSE,161,8.0,0.0,62,0.00,,,0.00,0,WeatherHawk,2013-03-12 13:00:00,
2013-03-12 06:05:00,41.6,29.9,30.20,SSW,193,4.0,0.0,63,0.00,,,0.00,0,WeatherHawk,2013-03-12 13:05:00,
2013-03-12 06:10:00,41.8,29.8,30.20,SSW,210,6.0,0.0,62,0.00,,,0.00,0,WeatherHawk,2013-03-12 13:10:00,
2013-03-12 06:15:00,41.0,29.4,30.21,SW,231,4.0,0.0,63,0.00,,,0.00,0,WeatherHawk,2013-03-12 13:15:00,
2013-03-12 06:20:00,39.9,29.8,30.21,SW,231,1.0,0.0,67,0.00,,,0.00,0,WeatherHawk,2013-03-12 13:20:00,
2013-03-12 06:25:00,40.5,31.2,30.21,SSW,210,3.0,0.0,69,0.00,,,0.00,0,WeatherHawk,2013-03-12 13:25:00,
2013-03-12 06:30:00,39.4,30.8,30.21,West,259,2.0,0.0,71,0.00,,,0.00,0,WeatherHawk,2013-03-12 13:30:00,
2013-03-12 06:35:00,39.6,32.6,30.21,WSW,254,0.0,-999.0,76,0.00,,,0.00,0,WeatherHawk,2013-03-12 13:35:00,
2013-03-12 06:40:00,40.3,30.9,30.20,South,186,4.0,0.0,69,0.00,,,0.00,0,WeatherHawk,2013-03-12 13:40:00,
2013-03-12 06:45:00,40.8,30.7,30.20,SE,135,7.0,0.0,67,0.00,,,0.00,0,WeatherHawk,2013-03-12 13:45:00,
2013-03-12 06:50:00,41.1,30.6,30.20,SSW,204,4.0,0.0,66,0.00,,,0.00,0,WeatherHawk,2013-03-12 13:50:00,
2013-03-12 06:55:00,40.9,30.4,30.20,SSE,154,4.0,0.0,66,0.00,,,0.00,0,WeatherHawk,2013-03-12 13:55:00,
2013-03-12 07:00:00,41.1,30.2,30.20,South,188,8.0,0.0,65,0.00,,,0.00,1,WeatherHawk,2013-03-12 14:00:00,
2013-03-12 07:05:00,40.5,29.7,30.20,SSW,206,5.0,0.0,65,0.00,,,0.00,0,WeatherHawk,2013-03-12 14:05:00,
2013-03-12 07:10:00,38.4,29.8,30.21,WSW,239,4.0,0.0,71,0.00,,,0.00,1,WeatherHawk,2013-03-12 14:10:00,
2013-03-12 07:15:00,38.5,32.3,30.21,South,170,1.0,-999.0,78,0.00,,,0.00,0,WeatherHawk,2013-03-12 14:15:00,
2013-03-12 07:20:00,39.0,33.1,30.21,NNW,330,0.0,-999.0,79,0.00,,,0.00,1,WeatherHawk,2013-03-12 14:20:00,
2013-03-12 07:25:00,40.5,34.5,30.21,WSW,257,0.0,0.0,79,0.00,,,0.00,2,WeatherHawk,2013-03-12 14:25:00,
2013-03-12 07:30:00,38.2,31.9,30.22,ESE,112,0.0,0.0,78,0.00,,,0.00,5,WeatherHawk,2013-03-12 14:30:00,
2013-03-12 07:36:00,39.0,34.6,30.22,North,7,2.0,0.0,84,0.00,,,0.00,11,WeatherHawk,2013-03-12 14:36:00,
2013-03-12 07:41:00,39.3,34.9,30.21,East,83,0.0,0.0,84,0.00,,,0.00,18,WeatherHawk,2013-03-12 14:41:00,
2013-03-12 07:46:00,40.6,34.3,30.21,SSW,200,2.0,0.0,78,0.00,,,0.00,22,WeatherHawk,2013-03-12 14:46:00,
2013-03-12 07:51:00,40.7,32.4,30.21,SSW,205,0.0,0.0,72,0.00,,,0.00,29,WeatherHawk,2013-03-12 14:51:00,
2013-03-12 07:56:00,40.1,30.4,30.21,WSW,249,0.0,0.0,68,0.00,,,0.00,37,WeatherHawk,2013-03-12 14:56:00,
2013-03-12 08:02:00,39.4,30.5,30.21,NW,304,0.0,0.0,70,0.00,,,0.00,49,WeatherHawk,2013-03-12 15:02:00,
2013-03-12 08:07:00,39.6,31.3,30.21,South,184,0.0,0.0,72,0.00,,,0.00,56,WeatherHawk,2013-03-12 15:07:00,
2013-03-12 08:12:00,39.1,31.5,30.21,South,184,0.0,0.0,74,0.00,,,0.00,59,WeatherHawk,2013-03-12 15:12:00,
2013-03-12 08:17:00,42.6,34.5,30.21,SSW,210,4.0,0.0,73,0.00,,,0.00,59,WeatherHawk,2013-03-12 15:17:00,
2013-03-12 08:22:00,38.4,30.9,30.21,NW,326,0.0,0.0,74,0.00,,,0.00,70,WeatherHawk,2013-03-12 15:22:00,
2013-03-12 08:27:00,38.2,31.3,30.21,WNW,296,3.0,0.0,76,0.00,,,0.00,70,WeatherHawk,2013-03-12 15:27:00,
2013-03-12 08:32:00,41.4,34.8,30.21,South,183,2.0,0.0,77,0.00,,,0.00,72,WeatherHawk,2013-03-12 15:32:00,
2013-03-12 08:38:00,43.9,31.3,30.20,SSW,206,1.0,0.0,61,0.00,,,0.00,69,WeatherHawk,2013-03-12 15:38:00,
2013-03-12 08:43:00,38.2,28.9,30.21,WSW,247,0.0,0.0,69,0.00,,,0.00,72,WeatherHawk,2013-03-12 15:43:00,
2013-03-12 08:48:00,40.3,32.4,30.21,SE,127,3.0,0.0,73,0.00,,,0.00,76,WeatherHawk,2013-03-12 15:48:00,
2013-03-12 08:53:00,44.2,32.5,30.21,SSW,211,4.0,0.0,63,0.00,,,0.00,98,WeatherHawk,2013-03-12 15:53:00,
2013-03-12 08:58:00,42.0,32.5,30.21,SE,130,0.0,0.0,69,0.00,,,0.00,112,WeatherHawk,2013-03-12 15:58:00,
2013-03-12 09:03:00,45.3,31.4,30.21,SSW,199,4.0,0.0,58,0.00,,,0.00,137,WeatherHawk,2013-03-12 16:03:00,
2013-03-12 09:08:00,40.1,26.1,30.20,SSW,213,0.0,0.0,57,0.00,,,0.00,128,WeatherHawk,2013-03-12 16:08:00,
2013-03-12 09:13:00,44.9,28.8,30.20,SSE,165,8.0,0.0,53,0.00,,,0.00,95,WeatherHawk,2013-03-12 16:13:00,
2013-03-12 09:18:00,44.9,28.9,30.20,SSW,196,5.0,0.0,53,0.00,,,0.00,84,WeatherHawk,2013-03-12 16:18:00,
2013-03-12 09:23:00,45.1,28.5,30.20,South,191,8.0,0.0,52,0.00,,,0.00,86,WeatherHawk,2013-03-12 16:23:00,
2013-03-12 09:28:00,45.0,28.5,30.20,SSE,148,5.0,0.0,52,0.00,,,0.00,75,WeatherHawk,2013-03-12 16:28:00,
2013-03-12 09:33:00,45.2,28.6,30.20,South,182,5.0,0.0,52,0.00,,,0.00,101,WeatherHawk,2013-03-12 16:33:00,
2013-03-12 09:38:00,45.1,28.1,30.20,SSW,199,6.0,0.0,51,0.00,,,0.00,86,WeatherHawk,2013-03-12 16:38:00,
2013-03-12 09:43:00,45.1,28.1,30.20,South,169,8.0,0.0,51,0.00,,,0.00,84,WeatherHawk,2013-03-12 16:43:00,
2013-03-12 09:49:00,45.4,27.8,30.20,South,177,8.0,0.0,50,0.00,,,0.00,129,WeatherHawk,2013-03-12 16:49:00,
2013-03-12 09:54:00,45.7,27.6,30.20,South,177,6.0,0.0,49,0.00,,,0.00,130,WeatherHawk,2013-03-12 16:54:00,
2013-03-12 09:59:00,45.8,27.7,30.20,SSW,205,4.0,0.0,49,0.00,,,0.00,137,WeatherHawk,2013-03-12 16:59:00,
2013-03-12 10:04:00,46.0,27.5,30.21,SSE,154,6.0,0.0,48,0.00,,,0.00,149,WeatherHawk,2013-03-12 17:04:00,
2013-03-12 10:09:00,46.3,27.7,30.20,South,171,5.0,0.0,48,0.00,,,0.00,122,WeatherHawk,2013-03-12 17:09:00,
2013-03-12 10:14:00,47.2,28.5,30.20,SSE,166,1.0,0.0,48,0.00,,,0.00,137,WeatherHawk,2013-03-12 17:14:00,
2013-03-12 10:19:00,46.4,27.3,30.20,SSE,154,7.0,0.0,47,0.00,,,0.00,151,WeatherHawk,2013-03-12 17:19:00,
2013-03-12 10:24:00,46.4,27.2,30.20,SSE,164,11.0,0.0,47,0.00,,,0.00,158,WeatherHawk,2013-03-12 17:24:00,
2013-03-12 10:29:00,46.9,27.7,30.20,SSE,159,9.0,0.0,47,0.00,,,0.00,150,WeatherHawk,2013-03-12 17:29:00,
2013-03-12 10:34:00,47.2,28.0,30.20,South,180,7.0,0.0,47,0.00,,,0.00,154,WeatherHawk,2013-03-12 17:34:00,
2013-03-12 10:39:00,47.2,28.0,30.20,SSE,157,8.0,0.0,47,0.00,,,0.00,172,WeatherHawk,2013-03-12 17:39:00,
2013-03-12 10:44:00,46.9,27.2,30.20,SE,142,10.0,0.0,46,0.00,,,0.00,172,WeatherHawk,2013-03-12 17:44:00,
2013-03-12 10:49:00,47.0,27.3,30.20,SSE,153,10.0,0.0,46,0.00,,,0.00,178,WeatherHawk,2013-03-12 17:49:00,
2013-03-12 10:54:00,47.1,27.4,30.20,SSE,166,9.0,0.0,46,0.00,,,0.00,193,WeatherHawk,2013-03-12 17:54:00,
2013-03-12 10:59:00,48.1,28.3,30.20,SSW,198,8.0,0.0,46,0.00,,,0.00,200,WeatherHawk,2013-03-12 17:59:00,
2013-03-12 11:04:00,48.1,27.8,30.19,SSE,156,7.0,0.0,45,0.00,,,0.00,223,WeatherHawk,2013-03-12 18:04:00,
2013-03-12 11:09:00,47.7,26.9,30.19,SSE,155,10.0,0.0,44,0.00,,,0.00,247,WeatherHawk,2013-03-12 18:09:00,
2013-03-12 11:14:00,49.7,28.1,30.19,SSE,163,5.0,0.0,43,0.00,,,0.00,303,WeatherHawk,2013-03-12 18:14:00,
2013-03-12 11:20:00,49.6,26.8,30.20,SSE,151,6.0,0.0,41,0.00,,,0.00,274,WeatherHawk,2013-03-12 18:20:00,
2013-03-12 11:25:00,50.2,26.2,30.20,SSE,163,11.0,0.0,39,0.00,,,0.00,306,WeatherHawk,2013-03-12 18:25:00,
2013-03-12 11:30:00,51.0,26.9,30.19,SSE,154,7.0,-999.0,39,0.00,,,0.00,371,WeatherHawk,2013-03-12 18:30:00,
2013-03-12 11:35:00,50.3,25.6,30.19,South,178,10.0,0.0,38,0.00,,,0.00,359,WeatherHawk,2013-03-12 18:35:00,
2013-03-12 11:40:00,50.3,25.0,30.19,SSW,192,11.0,0.0,37,0.00,,,0.00,357,WeatherHawk,2013-03-12 18:40:00,
2013-03-12 11:45:00,51.1,25.1,30.20,South,185,8.0,-999.0,36,0.00,,,0.00,415,WeatherHawk,2013-03-12 18:45:00,
2013-03-12 11:50:00,51.3,26.0,30.19,SE,134,8.0,0.0,37,0.00,,,0.00,337,WeatherHawk,2013-03-12 18:50:00,
2013-03-12 11:55:00,51.4,25.4,30.19,South,174,6.0,0.0,36,0.00,,,0.00,414,WeatherHawk,2013-03-12 18:55:00,
2013-03-12 12:00:00,52.8,25.9,30.19,South,186,7.0,0.0,35,0.00,,,0.00,327,WeatherHawk,2013-03-12 19:00:00,
2013-03-12 12:05:00,52.2,24.7,30.20,SE,133,6.0,0.0,34,0.00,,,0.00,291,WeatherHawk,2013-03-12 19:05:00,
2013-03-12 12:10:00,53.2,25.6,30.19,SE,142,5.0,0.0,34,0.00,,,0.00,267,WeatherHawk,2013-03-12 19:10:00,
2013-03-12 12:15:00,54.1,24.9,30.18,SSE,160,7.0,-999.0,32,0.00,,,0.00,457,WeatherHawk,2013-03-12 19:15:00,
2013-03-12 12:20:00,52.5,23.5,30.19,ESE,118,7.0,0.0,32,0.00,,,0.00,369,WeatherHawk,2013-03-12 19:20:00,
2013-03-12 12:25:00,54.6,24.6,30.19,SSE,167,4.0,-999.0,31,0.00,,,0.00,459,WeatherHawk,2013-03-12 19:25:00,
2013-03-12 12:30:00,55.1,25.0,30.18,SSE,167,5.0,0.0,31,0.00,,,0.00,429,WeatherHawk,2013-03-12 19:30:00,
2013-03-12 12:35:00,54.7,23.1,30.18,SE,135,5.0,0.0,29,0.00,,,0.00,613,WeatherHawk,2013-03-12 19:35:00,
2013-03-12 12:40:00,54.7,23.1,30.18,ESE,109,11.0,0.0,29,0.00,,,0.00,494,WeatherHawk,2013-03-12 19:40:00,
2013-03-12 12:45:00,59.0,24.2,30.18,South,189,5.0,-999.0,26,0.00,,,0.00,496,WeatherHawk,2013-03-12 19:45:00,
2013-03-12 12:50:00,57.1,20.7,30.18,SE,137,3.0,0.0,24,0.00,,,0.00,489,WeatherHawk,2013-03-12 19:50:00,
2013-03-12 12:55:00,60.0,22.1,30.18,WSW,253,2.0,0.0,23,0.00,,,0.00,563,WeatherHawk,2013-03-12 19:55:00,
2013-03-12 13:00:00,58.4,18.6,30.18,South,176,0.0,0.0,21,0.00,,,0.00,442,WeatherHawk,2013-03-12 20:00:00,
2013-03-12 13:05:00,59.1,16.9,30.18,SSE,154,6.0,-999.0,19,0.00,,,0.00,631,WeatherHawk,2013-03-12 20:05:00,
2013-03-12 13:10:00,58.7,11.2,30.18,SW,217,4.0,-999.0,15,0.00,,,0.00,605,WeatherHawk,2013-03-12 20:10:00,
2013-03-12 13:15:00,59.7,13.5,30.18,West,280,6.0,0.0,16,0.00,,,0.00,520,WeatherHawk,2013-03-12 20:15:00,
2013-03-12 13:20:00,59.8,7.1,30.18,WSW,240,13.0,0.0,12,0.00,,,0.00,469,WeatherHawk,2013-03-12 20:20:00,
2013-03-12 13:25:00,61.2,10.0,30.18,SW,218,10.0,0.0,13,0.00,,,0.00,430,WeatherHawk,2013-03-12 20:25:00,
2013-03-12 13:30:00,59.4,8.6,30.18,WSW,241,11.0,0.0,13,0.00,,,0.00,349,WeatherHawk,2013-03-12 20:30:00,
2013-03-12 13:35:00,60.0,10.7,30.18,West,260,9.0,0.0,14,0.00,,,0.00,498,WeatherHawk,2013-03-12 20:35:00,
2013-03-12 13:40:00,60.2,9.2,30.18,WSW,247,14.0,0.0,13,0.00,,,0.00,505,WeatherHawk,2013-03-12 20:40:00,
2013-03-12 13:45:00,60.2,5.5,30.17,SW,230,9.0,0.0,11,0.00,,,0.00,491,WeatherHawk,2013-03-12 20:45:00,
2013-03-12 13:50:00,61.7,6.7,30.17,WSW,243,6.0,0.0,11,0.00,,,0.00,553,WeatherHawk,2013-03-12 20:50:00,
2013-03-12 13:55:00,59.8,3.2,30.17,West,280,9.0,0.0,10,0.00,,,0.00,564,WeatherHawk,2013-03-12 20:55:00,
2013-03-12 14:00:00,61.2,6.3,30.17,WSW,255,9.0,0.0,11,0.00,,,0.00,574,WeatherHawk,2013-03-12 21:00:00,
2013-03-12 14:05:00,59.8,7.1,30.17,WSW,257,8.0,0.0,12,0.00,,,0.00,616,WeatherHawk,2013-03-12 21:05:00,
2013-03-12 14:11:00,61.9,8.8,30.17,West,274,8.0,0.0,12,0.00,,,0.00,636,WeatherHawk,2013-03-12 21:11:00,
2013-03-12 14:16:00,60.5,3.7,30.17,WSW,242,12.0,0.0,10,0.00,,,0.00,646,WeatherHawk,2013-03-12 21:16:00,
2013-03-12 14:22:00,62.2,2.7,30.17,WSW,247,6.0,0.0,9,0.00,,,0.00,686,WeatherHawk,2013-03-12 21:22:00,
2013-03-12 14:27:00,60.3,3.6,30.17,SW,217,10.0,0.0,10,0.00,,,0.00,601,WeatherHawk,2013-03-12 21:27:00,
2013-03-12 14:32:00,62.0,2.5,30.16,South,181,8.0,0.0,9,0.00,,,0.00,566,WeatherHawk,2013-03-12 21:32:00,
2013-03-12 14:37:00,61.3,2.0,30.16,SSW,209,10.0,0.0,9,0.00,,,0.00,581,WeatherHawk,2013-03-12 21:37:00,
2013-03-12 14:43:00,63.7,8.3,30.16,WSW,250,2.0,0.0,11,0.00,,,0.00,524,WeatherHawk,2013-03-12 21:43:00,
2013-03-12 14:48:00,62.0,4.8,30.16,WSW,254,5.0,0.0,10,0.00,,,0.00,447,WeatherHawk,2013-03-12 21:48:00,
2013-03-12 14:53:00,61.0,4.1,30.16,WSW,246,7.0,0.0,10,0.00,,,0.00,374,WeatherHawk,2013-03-12 21:53:00,
2013-03-12 14:58:00,60.9,-0.8,30.16,WSW,245,8.0,0.0,8,0.00,,,0.00,264,WeatherHawk,2013-03-12 21:58:00,
2013-03-12 15:03:00,60.7,1.5,30.17,West,268,13.0,0.0,9,0.00,,,0.00,305,WeatherHawk,2013-03-12 22:03:00,
2013-03-12 15:09:00,61.3,-0.5,30.17,WSW,241,7.0,0.0,8,0.00,,,0.00,259,WeatherHawk,2013-03-12 22:09:00,
2013-03-12 15:14:00,60.5,-1.1,30.17,SSW,211,12.0,0.0,8,0.00,,,0.00,260,WeatherHawk,2013-03-12 22:14:00,
2013-03-12 15:20:00,60.3,-1.2,30.17,WSW,239,12.0,0.0,8,0.00,,,0.00,272,WeatherHawk,2013-03-12 22:20:00,
2013-03-12 15:25:00,61.3,-0.5,30.16,SW,227,4.0,0.0,8,0.00,,,0.00,253,WeatherHawk,2013-03-12 22:25:00,
2013-03-12 15:30:00,60.6,-3.8,30.16,West,261,6.0,0.0,7,0.00,,,0.00,303,WeatherHawk,2013-03-12 22:30:00,
2013-03-12 15:35:00,62.0,0.0,30.16,West,259,5.0,-999.0,8,0.00,,,0.00,305,WeatherHawk,2013-03-12 22:35:00,
2013-03-12 15:40:00,61.0,-3.5,30.16,WSW,257,7.0,0.0,7,0.00,,,0.00,257,WeatherHawk,2013-03-12 22:40:00,
2013-03-12 15:45:00,61.3,2.0,30.16,SW,228,3.0,-999.0,9,0.00,,,0.00,234,WeatherHawk,2013-03-12 22:45:00,
2013-03-12 15:50:00,61.7,-0.2,30.16,WSW,246,4.0,-999.0,8,0.00,,,0.00,255,WeatherHawk,2013-03-12 22:50:00,
2013-03-12 15:55:00,61.2,1.9,30.16,WSW,248,5.0,0.0,9,0.00,,,0.00,220,WeatherHawk,2013-03-12 22:55:00,
2013-03-12 16:00:00,60.7,-3.8,30.16,WSW,255,11.0,0.0,7,0.00,,,0.00,177,WeatherHawk,2013-03-12 23:00:00,
2013-03-12 16:05:00,60.6,-3.8,30.16,SW,235,8.0,0.0,7,0.00,,,0.00,137,WeatherHawk,2013-03-12 23:05:00,
2013-03-12 16:10:00,61.1,1.8,30.16,WSW,245,3.0,0.0,9,0.00,,,0.00,113,WeatherHawk,2013-03-12 23:10:00,
2013-03-12 16:15:00,60.5,-1.1,30.16,SW,231,6.0,0.0,8,0.00,,,0.00,108,WeatherHawk,2013-03-12 23:15:00,
2013-03-12 16:20:00,60.6,-7.0,30.16,SSW,202,4.0,0.0,6,0.00,,,0.00,113,WeatherHawk,2013-03-12 23:20:00,
2013-03-12 16:25:00,60.2,-1.3,30.16,SSW,210,5.0,0.0,8,0.00,,,0.00,119,WeatherHawk,2013-03-12 23:25:00,
2013-03-12 16:30:00,60.0,-4.3,30.17,WSW,249,8.0,-999.0,7,0.00,,,0.00,97,WeatherHawk,2013-03-12 23:30:00,
2013-03-12 16:35:00,60.2,1.2,30.17,WSW,256,3.0,-999.0,9,0.00,,,0.00,105,WeatherHawk,2013-03-12 23:35:00,
2013-03-12 16:40:00,60.2,-4.1,30.16,WSW,256,2.0,0.0,7,0.00,,,0.00,108,WeatherHawk,2013-03-12 23:40:00,
2013-03-12 16:45:00,60.3,-4.0,30.17,SSW,201,7.0,0.0,7,0.00,,,0.00,108,WeatherHawk,2013-03-12 23:45:00,
2013-03-12 16:50:00,60.4,-7.1,30.17,WSW,250,6.0,-999.0,6,0.00,,,0.00,111,WeatherHawk,2013-03-12 23:50:00,
2013-03-12 16:55:00,60.4,1.4,30.17,WSW,241,6.0,-999.0,9,0.00,,,0.00,110,WeatherHawk,2013-03-12 23:55:00,
2013-03-12 17:00:00,60.5,-3.9,30.16,SSW,201,6.0,-999.0,7,0.00,,,0.00,132,WeatherHawk,2013-03-13 00:00:00,
2013-03-12 17:05:00,60.3,-4.0,30.16,SSW,192,10.0,0.0,7,0.00,,,0.00,142,WeatherHawk,2013-03-13 00:05:00,
2013-03-12 17:10:00,60.3,-1.2,30.16,SSW,192,12.0,0.0,8,0.00,,,0.00,132,WeatherHawk,2013-03-13 00:10:00,
2013-03-12 17:15:00,60.1,-1.4,30.16,WSW,243,7.0,0.0,8,0.00,,,0.00,114,WeatherHawk,2013-03-13 00:15:00,
2013-03-12 17:20:00,60.0,-1.5,30.16,SSW,204,14.0,0.0,8,0.00,,,0.00,156,WeatherHawk,2013-03-13 00:20:00,
2013-03-12 17:25:00,60.8,-0.8,30.16,SSW,213,10.0,0.0,8,0.00,,,0.00,262,WeatherHawk,2013-03-13 00:25:00,
2013-03-12 17:30:00,60.8,-0.9,30.15,WSW,242,9.0,0.0,8,0.00,,,0.00,258,WeatherHawk,2013-03-13 00:30:00,
2013-03-12 17:35:00,61.0,-0.7,30.16,SW,234,12.0,0.0,8,0.00,,,0.00,232,WeatherHawk,2013-03-13 00:35:00,
2013-03-12 17:40:00,60.9,-0.8,30.15,WSW,243,10.0,0.0,8,0.00,,,0.00,212,WeatherHawk,2013-03-13 00:40:00,
2013-03-12 17:45:00,61.1,-0.6,30.15,SW,214,8.0,0.0,8,0.00,,,0.00,137,WeatherHawk,2013-03-13 00:45:00,
2013-03-12 17:50:00,61.0,-0.7,30.15,SW,223,9.0,0.0,8,0.00,,,0.00,97,WeatherHawk,2013-03-13 00:50:00,
2013-03-12 17:55:00,60.4,-1.2,30.15,WSW,241,6.0,0.0,8,0.00,,,0.00,73,WeatherHawk,2013-03-13 00:55:00,
2013-03-12 18:01:00,60.0,-4.2,30.16,West,281,4.0,0.0,7,0.00,,,0.00,64,WeatherHawk,2013-03-13 01:01:00,
2013-03-12 18:06:00,59.9,-4.4,30.15,SSW,211,2.0,0.0,7,0.00,,,0.00,77,WeatherHawk,2013-03-13 01:06:00,
2013-03-12 18:11:00,59.6,-7.7,30.15,WSW,238,2.0,0.0,6,0.00,,,0.00,44,WeatherHawk,2013-03-13 01:11:00,
2013-03-12 18:16:00,59.3,-7.9,30.15,West,273,5.0,0.0,6,0.00,,,0.00,34,WeatherHawk,2013-03-13 01:16:00,
2013-03-12 18:22:00,59.1,2.6,30.16,WSW,246,6.0,0.0,10,0.00,,,0.00,24,WeatherHawk,2013-03-13 01:22:00,
2013-03-12 18:27:00,59.0,-5.0,30.16,WSW,248,6.0,0.0,7,0.00,,,0.00,23,WeatherHawk,2013-03-13 01:27:00,
2013-03-12 18:32:00,58.8,-2.4,30.16,SW,234,4.0,0.0,8,0.00,,,0.00,22,WeatherHawk,2013-03-13 01:32:00,
2013-03-12 18:38:00,58.1,-0.4,30.16,WSW,258,3.0,0.0,9,0.00,,,0.00,18,WeatherHawk,2013-03-13 01:38:00,
2013-03-12 18:43:00,58.2,1.9,30.16,WSW,253,4.0,0.0,10,0.00,,,0.00,17,WeatherHawk,2013-03-13 01:43:00,
2013-03-12 18:48:00,57.2,-3.6,30.17,WSW,258,2.0,0.0,8,0.00,,,0.00,10,WeatherHawk,2013-03-13 01:48:00,
2013-03-12 18:54:00,58.4,2.1,30.17,WSW,249,7.0,0.0,10,0.00,,,0.00,7,WeatherHawk,2013-03-13 01:54:00,
2013-03-12 18:59:00,57.2,-1.1,30.16,SW,220,4.0,0.0,9,0.00,,,0.00,4,WeatherHawk,2013-03-13 01:59:00,
2013-03-12 19:04:00,57.1,3.1,30.17,West,260,3.0,0.0,11,0.00,,,0.00,2,WeatherHawk,2013-03-13 02:04:00,
2013-03-12 19:10:00,56.5,7.9,30.17,WSW,255,2.0,0.0,14,0.00,,,0.00,0,WeatherHawk,2013-03-13 02:10:00,
2013-03-12 19:15:00,56.4,14.7,30.17,WSW,241,2.0,0.0,19,0.00,,,0.00,0,WeatherHawk,2013-03-13 02:15:00,
2013-03-12 19:20:00,55.9,13.1,30.17,SSW,208,2.0,0.0,18,0.00,,,0.00,0,WeatherHawk,2013-03-13 02:20:00,
2013-03-12 19:25:00,56.4,15.8,30.17,NW,310,5.0,0.0,20,0.00,,,0.00,0,WeatherHawk,2013-03-13 02:25:00,
2013-03-12 19:30:00,55.2,14.9,30.17,SSW,195,0.0,0.0,20,0.00,,,0.00,0,WeatherHawk,2013-03-13 02:30:00,
2013-03-12 19:35:00,55.7,16.4,30.17,ESE,108,2.0,-999.0,21,0.00,,,0.00,0,WeatherHawk,2013-03-13 02:35:00,
2013-03-12 19:40:00,54.6,15.5,30.18,East,99,6.0,0.0,21,0.00,,,0.00,0,WeatherHawk,2013-03-13 02:40:00,
2013-03-12 19:45:00,54.7,15.5,30.17,East,96,4.0,-999.0,21,0.00,,,0.00,0,WeatherHawk,2013-03-13 02:45:00,
2013-03-12 19:50:00,55.0,15.8,30.18,South,179,0.0,0.0,21,0.00,,,0.00,0,WeatherHawk,2013-03-13 02:50:00,
2013-03-12 19:55:00,55.6,12.7,30.18,SW,224,4.0,0.0,18,0.00,,,0.00,0,WeatherHawk,2013-03-13 02:55:00,
2013-03-12 20:00:00,55.5,11.4,30.17,SW,230,4.0,0.0,17,0.00,,,0.00,0,WeatherHawk,2013-03-13 03:00:00,
2013-03-12 20:05:00,55.5,10.0,30.18,SW,215,6.0,0.0,16,0.00,,,0.00,1,WeatherHawk,2013-03-13 03:05:00,
2013-03-12 20:10:00,55.8,13.0,30.18,WSW,241,5.0,0.0,18,0.00,,,0.00,0,WeatherHawk,2013-03-13 03:10:00,
2013-03-12 20:15:00,54.7,12.1,30.18,WSW,247,4.0,0.0,18,0.00,,,0.00,0,WeatherHawk,2013-03-13 03:15:00,
2013-03-12 20:20:00,55.0,13.5,30.18,WSW,238,6.0,0.0,19,0.00,,,0.00,0,WeatherHawk,2013-03-13 03:20:00,
2013-03-12 20:25:00,55.2,13.7,30.18,WSW,256,3.0,0.0,19,0.00,,,0.00,0,WeatherHawk,2013-03-13 03:25:00,
2013-03-12 20:30:00,55.0,14.7,30.18,WSW,241,1.0,0.0,20,0.00,,,0.00,0,WeatherHawk,2013-03-13 03:30:00,
2013-03-12 20:35:00,54.4,13.0,30.18,WSW,241,0.0,-999.0,19,0.00,,,0.00,0,WeatherHawk,2013-03-13 03:35:00,
2013-03-12 20:40:00,53.2,14.3,30.18,South,188,1.0,0.0,21,0.00,,,0.00,0,WeatherHawk,2013-03-13 03:40:00,
2013-03-12 20:45:00,53.7,14.7,30.18,SSE,162,1.0,0.0,21,0.00,,,0.00,0,WeatherHawk,2013-03-13 03:45:00,
2013-03-12 20:50:00,53.4,15.5,30.18,SE,139,2.0,0.0,22,0.00,,,0.00,0,WeatherHawk,2013-03-13 03:50:00,
2013-03-12 20:55:00,54.1,16.1,30.18,SSW,193,2.0,-999.0,22,0.00,,,0.00,0,WeatherHawk,2013-03-13 03:55:00,
2013-03-12 21:00:00,53.1,16.3,30.18,SSE,155,4.0,0.0,23,0.00,,,0.00,0,WeatherHawk,2013-03-13 04:00:00,
2013-03-12 21:02:00,54.0,13.9,30.18,SSW,212,1.0,0.0,20,0.00,,,0.00,0,WeatherHawk,2013-03-13 04:02:00,
2013-03-12 21:06:00,53.6,15.7,30.18,SW,214,0.0,0.0,22,0.00,,,0.00,0,WeatherHawk,2013-03-13 04:06:00,
2013-03-12 21:13:00,53.8,16.9,30.18,SSW,192,1.0,0.0,23,0.00,,,0.00,1,WeatherHawk,2013-03-13 04:13:00,
2013-03-12 21:18:00,55.1,17.0,30.18,West,276,0.0,0.0,22,0.00,,,0.00,0,WeatherHawk,2013-03-13 04:18:00,
2013-03-12 21:23:00,54.2,15.1,30.18,West,276,0.0,0.0,21,0.00,,,0.00,0,WeatherHawk,2013-03-13 04:23:00,
2013-03-12 21:28:00,54.1,16.1,30.18,WNW,298,3.0,0.0,22,0.00,,,0.00,0,WeatherHawk,2013-03-13 04:28:00,
2013-03-12 21:33:00,53.8,16.9,30.18,SSW,212,0.0,0.0,23,0.00,,,0.00,0,WeatherHawk,2013-03-13 04:33:00,
2013-03-12 21:38:00,52.8,17.0,30.18,South,188,0.0,0.0,24,0.00,,,0.00,0,WeatherHawk,2013-03-13 04:38:00,
2013-03-12 21:43:00,51.9,16.2,30.18,SSE,167,0.0,0.0,24,0.00,,,0.00,0,WeatherHawk,2013-03-13 04:43:00,
2013-03-12 21:48:00,53.4,18.5,30.18,WSW,256,0.0,0.0,25,0.00,,,0.00,1,WeatherHawk,2013-03-13 04:48:00,
2013-03-12 21:53:00,53.6,19.5,30.18,WSW,256,0.0,0.0,26,0.00,,,0.00,0,WeatherHawk,2013-03-13 04:53:00,
2013-03-12 21:58:00,52.7,17.9,30.18,WSW,256,0.0,0.0,25,0.00,,,0.00,0,WeatherHawk,2013-03-13 04:58:00,
2013-03-12 22:03:00,53.1,17.2,30.18,NE,38,0.0,0.0,24,0.00,,,0.00,0,WeatherHawk,2013-03-13 05:03:00,
2013-03-12 22:08:00,52.5,18.6,30.18,SE,132,0.0,0.0,26,0.00,,,0.00,0,WeatherHawk,2013-03-13 05:08:00,
2013-03-12 22:13:00,54.7,18.7,30.18,North,1,3.0,0.0,24,0.00,,,0.00,0,WeatherHawk,2013-03-13 05:13:00,
2013-03-12 22:18:00,53.4,19.4,30.18,South,186,0.0,0.0,26,0.00,,,0.00,0,WeatherHawk,2013-03-13 05:18:00,
2013-03-12 22:23:00,51.8,18.0,30.18,SE,137,6.0,0.0,26,0.00,,,0.00,0,WeatherHawk,2013-03-13 05:23:00,
2013-03-12 22:29:00,51.8,18.1,30.18,ESE,120,7.0,0.0,26,0.00,,,0.00,0,WeatherHawk,2013-03-13 05:29:00,
2013-03-12 22:34:00,52.2,19.3,30.18,ESE,121,7.0,0.0,27,0.00,,,0.00,0,WeatherHawk,2013-03-13 05:34:00,
2013-03-12 22:39:00,53.1,23.2,30.18,SSE,153,5.0,0.0,31,0.00,,,0.00,0,WeatherHawk,2013-03-13 05:39:00,
2013-03-12 22:44:00,52.5,22.8,30.18,SSE,159,5.0,0.0,31,0.00,,,0.00,0,WeatherHawk,2013-03-13 05:44:00,
2013-03-12 22:49:00,51.7,22.1,30.18,SSE,153,7.0,0.0,31,0.00,,,0.00,0,WeatherHawk,2013-03-13 05:49:00,
2013-03-12 22:54:00,53.9,24.0,30.18,SW,218,7.0,0.0,31,0.00,,,0.00,0,WeatherHawk,2013-03-13 05:54:00,
2013-03-12 22:59:00,53.2,24.1,30.18,WSW,238,2.0,0.0,32,0.00,,,0.00,0,WeatherHawk,2013-03-13 05:59:00,
2013-03-12 23:04:00,52.3,24.1,30.18,SW,233,4.0,0.0,33,0.00,,,0.00,0,WeatherHawk,2013-03-13 06:04:00,
2013-03-12 23:09:00,51.9,23.7,30.18,SSE,165,4.0,0.0,33,0.00,,,0.00,0,WeatherHawk,2013-03-13 06:09:00,
2013-03-12 23:14:00,52.2,24.0,30.18,South,176,4.0,0.0,33,0.00,,,0.00,0,WeatherHawk,2013-03-13 06:14:00,
2013-03-12 23:19:00,52.5,23.5,30.18,SSW,209,5.0,0.0,32,0.00,,,0.00,0,WeatherHawk,2013-03-13 06:19:00,
2013-03-12 23:24:00,52.6,22.1,30.18,SW,216,4.0,0.0,30,0.00,,,0.00,0,WeatherHawk,2013-03-13 06:24:00,
2013-03-12 23:29:00,52.4,22.6,30.18,SSE,162,2.0,0.0,31,0.00,,,0.00,0,WeatherHawk,2013-03-13 06:29:00,
2013-03-12 23:34:00,51.7,21.3,30.18,SSW,208,0.0,0.0,30,0.00,,,0.00,1,WeatherHawk,2013-03-13 06:34:00,
2013-03-12 23:39:00,52.8,22.2,30.18,SSW,200,6.0,0.0,30,0.00,,,0.00,0,WeatherHawk,2013-03-13 06:39:00,
2013-03-12 23:44:00,53.5,21.2,30.18,SW,232,2.0,0.0,28,0.00,,,0.00,0,WeatherHawk,2013-03-13 06:44:00,
2013-03-12 23:49:00,53.0,22.4,30.18,SW,222,5.0,0.0,30,0.00,,,0.00,0,WeatherHawk,2013-03-13 06:49:00,
2013-03-12 23:54:00,52.2,20.9,30.19,South,189,5.0,0.0,29,0.00,,,0.00,1,WeatherHawk,2013-03-13 06:54:00,
2013-03-12 23:59:00,52.4,21.1,30.18,SSE,166,4.0,0.0,29,0.00,,,0.00,0,WeatherHawk,2013-03-13 06:59:00,